Location: Mount Cross
(36.6390°N, 79.4878°W)
Time: 15:10:39
(UTC+00:00)

Tiros 1 - Pass Details

Date: 01 April 2023
Orbit: 627 x 661 km, 48.4° (Epoch: 02 June)

Event Time Altitude Azimuth Distance (km) Brightness Sun altitude
Exits shadow 08:03:31 26° 43° (NE) 1,294 9.2 -34.2°
Drops below altitude 10° 08:05:40 10° 50° (NE) 2,075 10.6 -33.9°
Sets 08:08:02 0° 53° (NE) 2,991 11.7 -33.5°
